Regional Weather Roundup
Issued by NWS

Home | Current Version | Previous Version | Text Only | Print | Product List | Glossary Off
Versions: 1 2 3 4 5 6 7 8 9 10 11 12 13 14 15 16 17 18 19 20 21 22 23 24 25 26 27 28 29

000
ASUS45 KCYS 250210
RWRWY

WYOMING REGIONAL WEATHER ROUNDUP
NATIONAL WEATHER SERVICE CHEYENNE WY
800 PM MDT FRI OCT 24 2014

NOTE:  "FAIR" INDICATES FEW OR NO CLOUDS BELOW 12,000 FEET
WITH NO SIGNIFICANT WEATHER AND/OR OBSTRUCTIONS TO VISIBILITY.

WYZ001-250300-
YELLOWSTONE NATIONAL PARK

CITY           SKY/WX    TMP DP  RH WIND       PRES   REMARKS
LK YELLOWSTONE   N/A     36  25  64 NW3       30.27
W YELLOWSTONE  NOT AVBL

$$
WYZ002>013-054>058-071-098>099-250300-
NORTHERN WYOMING

CITY           SKY/WX    TMP DP  RH WIND       PRES   REMARKS
JACKSON        CLEAR     48  27  43 S9        30.20R
CODY           PTCLDY    48  37  66 NE6       30.11
GREYBULL       CLEAR     57  33  40 NW16      30.02R
WORLAND        CLEAR     56  29  35 N5        30.02R
SHERIDAN       PTCLDY    42  32  67 S5        30.11R
BUFFALO        CLEAR     50  32  50 NW10      30.15R
GILLETTE       CLEAR     50  31  48 NE7       30.11R
HULETT         CLOUDY    54  32  43 NE6       30.13R
NEWCASTLE      FAIR      50  30  46 CALM      30.08

$$
WYZ014>020-022>026-101>103-250300-
CENTRAL WYOMING

CITY           SKY/WX    TMP DP  RH WIND       PRES   REMARKS
BIG PINEY      CLEAR     43  21  41 NW12      30.26R
PINEDALE       CLEAR     41  25  52 NW8       30.27
DUBOIS         FAIR      48  18  29 NW9       30.22R
LANDER         CLEAR     63  18  17 W6        30.11R
RIVERTON       CLEAR     53  22  29 W8        30.12R
CASPER         CLEAR     54  21  27 SW8       30.12R
DOUGLAS        CLEAR     58  20  22 VRB3      30.11R

$$
WYZ021-027>030-104>119-250300-
SOUTHERN WYOMING

CITY           SKY/WX    TMP DP  RH WIND       PRES   REMARKS
EVANSTON       CLEAR     57  24  28 S6        30.26S
KEMMERER       CLEAR     50  23  34 N7        30.28R
FORT BRIDGER   FAIR      58  24  27 SW9       30.29R
ROCK SPRINGS   NOT AVBL
RAWLINS        CLEAR     53  23  31 CALM      30.26R
SARATOGA       FAIR      46  27  46 S5        30.31R
LARAMIE        CLEAR     49  21  33 SW13      30.29R
CHEYENNE       CLEAR     57  28  33 SW8       30.23R
TORRINGTON     CLEAR     71  25  17 W9        30.07R
PINE BLUFFS    FAIR      50  30  46 CALM      30.17R

$$



USA.gov is the U.S. government's official web portal to all federal, state and local government web resources and services.